GW4116 Weather Reports


Display with metric or nautical units.
time (UTC)temp
F
wind
direction
speed
MPH
gust
MPH
rain 1hr
in
rain 24hr
in
rain mn
in
humidity
%
barometer
mb
20260505125023 34 15 3.0 6.0 0.02 1.59 0.52 97 1015.7
20260505124023 34 354 4.0 7.0 0.02 1.59 0.52 97 1015.6
20260505123017 34 1 4.0 7.0 0.02 1.59 0.52 96 1015.5
20260505122026 35 12 3.0 4.0 0.02 1.59 0.51 96 1015.6
20260505121026 35 3 3.0 5.0 0.02 1.59 0.51 96 1015.4
20260505120017 35 3 3.0 7.0 0.00 1.57 0.50 96 1015.3
20260505115018 36 2 4.0 6.0 0.00 1.57 0.50 96 1015.3
20260505114018 36 7 4.0 7.0 0.00 1.57 0.50 95 1015.2
20260505113018 36 8 4.0 8.0 0.01 1.57 0.50 95 1015.1
20260505112038 37 359 4.0 8.0 0.04 1.57 0.49 94 1015.1
20260505111019 38 14 4.0 7.0 0.12 1.57 0.49 93 1015.0
20260505102019 40 26 11.0 31.0 0.37 1.53 0.45 94 1014.0
20260505101019 40 31 13.0 29.0 0.30 1.45 0.38 94 1014.0
20260505100019 40 35 7.0 11.0 0.22 1.37 0.30 94 1013.8
20260505095059 41 23 5.0 12.0 0.10 1.25 0.18 94 1013.6
20260505094016 41 37 6.0 22.0 0.00 1.16 0.08 95 1013.6
20260505093019 41 47 12.0 29.0 0.00 1.15 0.08 95 1013.6
20260505092019 42 47 11.0 26.0 0.01 1.15 0.08 95 1013.4
20260505091017 42 46 13.0 45.0 0.05 1.15 0.08 96 1013.3
20260505090037 43 46 13.0 42.0 0.06 1.15 0.08 96 1013.1
20260505085017 43 46 13.0 40.0 0.08 1.15 0.08 96 1013.2
20260505084020 43 46 8.0 18.0 0.08 1.15 0.08 95 1013.2
20260505083017 43 46 24.0 34.0 0.08 1.15 0.08 95 1013.2
20260505082037 43 44 23.0 33.0 0.07 1.14 0.07 94 1013.3
20260505081017 44 43 23.0 33.0 0.03 1.11 0.03 93 1013.4
20260505080038 46 44 23.0 33.0 0.02 1.10 0.02 91 1013.1
20260505075018 48 45 23.0 32.0 0.00 1.07 0.00 91 1013.2
20260505074018 48 45 7.0 26.0 0.00 1.07 0.00 92 1013.3
20260505073038 48 45 3.0 21.0 0.00 1.07 0.00 91 1013.1
20260505072030 48 46 1.0 1.0 0.00 1.07 0.00 93 1013.2
20260505071031 48 45 1.0 1.0 0.00 1.07 0.00 93 1013.1
20260505070031 48 46 1.0 1.0 0.00 1.07 0.00 92 1012.9
20260505065031 48 46 1.0 1.0 0.00 1.07 0.00 92 1013.0
20260505064031 48 46 1.0 1.0 0.00 1.07 0.00 92 1013.0
20260505063016 48 46 1.0 2.0 0.00 1.07 0.00 91 1013.0
20260505062031 48 44 1.0 1.0 0.00 1.07 0.00 91 1013.0
20260505061031 48 44 1.0 1.0 0.00 1.07 0.00 91 1013.1
20260505060031 48 42 1.0 2.0 0.00 1.07 0.00 90 1013.1
20260505055031 48 48 1.0 2.0 0.00 1.07 1.07 90 1013.2
20260505054032 48 46 1.0 1.0 0.00 1.07 1.07 90 1012.8
20260505053032 48 46 1.0 1.0 0.00 1.07 1.07 90 1012.8
20260505052017 48 44 1.0 1.0 0.00 1.07 1.07 91 1012.9
20260505051017 48 45 1.0 1.0 0.02 1.07 1.07 91 1012.9
20260505041018 49 240 6.0 12.0 0.42 1.06 1.06 89 1013.3
20260505040018 48 247 6.0 15.0 0.48 1.00 1.00 90 1013.2
20260505035016 48 242 8.0 14.0 0.50 0.96 0.96 89 1013.2
20260505034018 49 249 9.0 14.0 0.44 0.89 0.89 89 1013.4
20260505033018 49 247 9.0 13.0 0.39 0.84 0.84 88 1013.3
20260505032019 49 262 8.0 14.0 0.30 0.75 0.75 86 1013.0
20260505031017 50 340 7.0 14.0 0.19 0.64 0.64 82 1013.0
20260505030017 51 45 3.0 4.0 0.08 0.52 0.52 77 1012.7
20260505025017 52 46 3.0 4.0 0.01 0.46 0.46 73 1012.3
20260505024017 52 45 3.0 4.0 0.00 0.45 0.45 71 1012.2
20260505023019 52 48 3.0 5.0 0.01 0.45 0.45 70 1012.0
20260505022019 53 45 3.0 5.0 0.01 0.45 0.45 68 1011.9
20260505021017 53 48 2.0 4.0 0.01 0.45 0.45 67 1011.9
20260505020018 53 46 2.0 3.0 0.00 0.45 0.45 67 1012.2
20260505015037 54 45 7.0 24.0 0.00 0.45 0.45 66 1012.1
20260505014017 55 41 14.0 25.0 0.00 0.45 0.45 64 1011.9
20260505013018 57 43 4.0 22.0 0.00 0.45 0.45 58 1011.9
20260505012018 58 45 3.0 6.0 0.00 0.45 0.45 54 1011.6
20260505011017 58 42 5.0 12.0 0.00 0.45 0.45 50 1011.6
20260505010018 58 35 4.0 9.0 0.00 0.45 0.45 50 1011.3
20260505005018 58 38 5.0 10.0 0.00 0.45 0.45 50 1011.2
20260505004038 58 36 5.0 13.0 0.00 0.45 0.45 49 1011.1
20260505003018 58 43 5.0 12.0 0.00 0.45 0.45 50 1011.0
20260505002018 59 34 7.0 14.0 0.00 0.45 0.45 50 1010.8
20260505001018 60 30 10.0 20.0 0.00 0.45 0.45 47 1011.0
20260505000019 61 34 8.0 14.0 0.00 0.53 0.45 42 1010.7
20260504235018 61 39 7.0 12.0 0.00 0.53 0.45 39 1010.7
20260504234039 61 44 6.0 12.0 0.00 0.53 0.45 39 1010.4
20260504233019 61 31 8.0 13.0 0.00 0.53 0.45 41 1010.5
20260504232019 61 337 6.0 16.0 0.00 0.53 0.45 41 1010.5
20260504231016 61 16 5.0 17.0 0.00 0.53 0.45 42 1010.6
20260504230019 62 14 5.0 12.0 0.00 0.53 0.45 38 1010.5
20260504225019 62 7 5.0 9.0 0.02 0.53 0.45 38 1010.6
20260504224020 62 5 6.0 10.0 0.08 0.53 0.45 39 1010.5
20260504223017 62 20 9.0 16.0 0.15 0.54 0.45 37 1010.4
20260504222018 62 28 9.0 16.0 0.21 0.54 0.45 36 1009.9
20260504221020 63 42 10.0 20.0 0.25 0.54 0.44 36 1009.6
20260504220017 63 44 10.0 15.0 0.29 0.54 0.44 36 1009.4
20260504215037 64 44 11.0 16.0 0.27 0.53 0.43 34 1009.3
20260504214017 64 43 11.0 18.0 0.21 0.47 0.36 34 1009.4
20260504213037 64 46 12.0 20.0 0.14 0.42 0.29 35 1009.6
20260504212038 64 41 11.0 17.0 0.09 0.40 0.24 35 1009.7
20260504211018 66 41 13.0 19.0 0.05 0.36 0.20 32 1009.7
20260504210018 67 49 3.0 7.0 0.02 0.32 0.15 28 1009.7
20260504205038 68 49 2.0 2.0 0.05 0.32 0.15 27 1009.5
20260504204018 67 102 4.0 7.0 0.07 0.32 0.15 28 1009.5
20260504203058 66 220 5.0 9.0 0.07 0.32 0.15 28 1009.4
20260504202018 65 223 5.0 8.0 0.07 0.32 0.15 29 1009.5
20260504201019 65 224 5.0 7.0 0.07 0.32 0.15 33 1009.6
20260504200019 66 222 8.0 14.0 0.06 0.30 0.14 32 1009.5
20260504195016 68 229 10.0 33.0 0.03 0.27 0.11 28 1009.3
20260504194019 70 359 2.0 6.0 0.01 0.25 0.08 23 1009.1
20260504193019 70 305 2.0 6.0 0.01 0.25 0.08 22 1009.0
20260504192019 70 9 3.0 9.0 0.02 0.26 0.08 22 1009.0
20260504191020 70 13 5.0 9.0 0.02 0.26 0.08 22 1008.9
20260504190017 71 342 5.0 10.0 0.02 0.27 0.08 24 1009.0
20260504185016 71 13 4.0 8.0 0.02 0.28 0.08 23 1008.9
20260504184020 70 292 5.0 11.0 0.03 0.29 0.08 24 1009.1
20260504183020 70 275 6.0 11.0 0.03 0.28 0.07 25 1009.2
20260504182020 69 307 4.0 10.0 0.03 0.28 0.06 24 1009.3
20260504181017 69 321 4.0 11.0 0.04 0.28 0.06 26 1009.5
20260504180038 68 326 5.0 11.0 0.04 0.28 0.06 28 1009.7
20260504175017 68 289 5.0 10.0 0.04 0.27 0.06 29 1009.8
20260504174018 67 280 5.0 14.0 0.04 0.27 0.05 29 1010.0
20260504173018 67 313 4.0 7.0 0.04 0.27 0.04 30 1010.2
20260504172039 67 306 5.0 9.0 0.03 0.26 0.03 30 1010.2
20260504171039 67 314 5.0 7.0 0.02 0.25 0.02 30 1010.3
20260504151022 62 299 5.0 9.0 0.00 0.27 0.00 31 1010.7
20260504141017 57 295 4.0 8.0 0.00 0.27 0.00 33 1010.9